"2009-12-22 00:00:00",1523804,5.896,43.06,11.46,1.353,12.4,103.5908,8.47,9.63,18.21,0,110,13.39,9.25,5.1
"2009-12-22 00:00:30",1523805,3.669,36.12,14.71,1.086,10.65,103.5908,8.47,9.76,17.78,0,110,13.39,9.25,358.1
"2009-12-22 00:01:00",1523806,4.963,45.56,13.44,1.305,13.17,103.5905,8.47,9.73,18.17,0,110,13.39,9.25,7.6
"2009-12-22 00:01:30",1523807,2.858,35.58,10.08,1.409,10.84,103.5803,8.44,9.62,17.92,0,110,13.39,9.22,357.6
"2009-12-22 00:02:00",1523808,1.435,50.09,27.52,0.411,8.56,103.5696,8.41,9.48,17.71,0,110,13.43,9.19,12.1
"2009-12-22 00:02:30",1523809,1.397,123.1,22.48,0.555,8.35,103.5654,8.4,9.47,17.61,0,110.1,13.43,9.18,85.1
"2009-12-22 00:03:00",1523810,0.632,133.3,19.28,0.791,9.56,103.5569,8.38,9.62,17.8,0,110.1,13.4,9.16,95.3
"2009-12-22 00:03:30",1523811,1.765,105.2,26.03,1.204,10.37,103.5581,8.38,9.48,17.7,0,110,13.4,9.17,67.2
"2009-12-22 00:04:00",1523812,1.667,70.67,14.12,0.883,8.87,103.5584,8.38,9.53,17.87,0,110,13.41,9.17,32.7
"2009-12-22 00:04:30",1523813,3.682,64.14,11.75,1.39,10.7,103.5619,8.39,9.53,18.19,0,110,13.41,9.18,26.1
"2009-12-22 00:05:00",1523814,2.73,54.64,12.33,0.663,9.18,103.5611,8.39,9.45,18.25,0,110,13.41,9.17,16.6
"2009-12-22 00:05:30",1523815,2.965,117.6,20.05,1.296,11.79,103.5575,8.38,9.59,18.21,0,110,13.41,9.16,79.6
"2009-12-22 00:06:00",1523816,2.809,106.3,18.28,1.272,10.79,103.5681,8.41,9.55,18.01,0,110,13.41,9.19,68.3
"2009-12-22 00:06:30",1523817,2.925,69.92,4.915,0.341,8.51,103.5661,8.4,9.44,18.17,0,110,13.44,9.19,31.9
"2009-12-22 00:07:00",1523818,4.169,89.4,8.09,1.487,10.12,103.5643,8.4,9.47,18.5,0,110,13.41,9.18,51.4
"2009-12-22 00:07:30",1523819,3.594,85.7,10.18,0.935,9.25,103.5523,8.37,9.56,18.97,0,110,13.41,9.15,47.7
"2009-12-22 00:08:00",1523820,4.995,98.8,13.87,1.085,12.06,103.5502,8.36,9.56,19.34,0,110,13.41,9.15,60.8
"2009-12-22 00:08:30",1523821,3.695,77.49,8.43,1.056,9.68,103.5528,8.37,9.51,19.38,0,110,13.41,9.15,39.5
"2009-12-22 00:09:00",1523822,4.539,91.2,11.99,1.089,12.55,103.5546,8.38,9.59,18.95,0,110,13.41,9.16,53.2
"2009-12-22 00:09:30",1523823,3.382,105.3,10.08,1.253,11.48,103.5569,8.38,9.54,18.62,0,110,13.41,9.16,67.3
"2009-12-22 00:10:00",1523824,3.234,71.78,11.59,1.212,10.64,103.5581,8.38,9.49,18.51,0,110,13.41,9.17,33.8
"2009-12-22 00:10:30",1523825,3.086,61.57,3.736,0.262,8.15,103.5581,8.38,9.36,18.53,0,110,13.45,9.17,23.6
"2009-12-22 00:11:00",1523826,4.125,66.24,7.33,1.384,9.62,103.5581,8.38,9.38,18.79,0,110,13.41,9.17,28.2
"2009-12-22 00:11:30",1523827,3.553,65.01,8.17,0.867,9.84,103.555,8.38,9.53,19.08,0,110,13.41,9.16,27.0
"2009-12-22 00:12:00",1523828,4.871,72,7.727,1.106,12.34,103.5474,8.36,9.57,19.16,0,110,13.41,9.14,34.0
"2009-12-22 00:12:30",1523829,4.755,73.66,7.891,1.277,11.9,103.5369,8.33,9.51,19.13,0,110,13.41,9.11,35.7
"2009-12-22 00:13:00",1523830,3.795,62.61,5.953,0.896,9.89,103.5251,8.3,9.53,19.15,0,110,13.41,9.08,24.6
"2009-12-22 00:13:30",1523831,5.292,65.74,8.01,1.183,11.51,103.5242,8.3,9.45,19.12,0,110,13.41,9.08,27.7
"2009-12-22 00:14:00",1523832,3.506,62.37,4.232,0.393,8.44,103.5242,8.3,9.37,19.09,0,110,13.44,9.08,24.4
"2009-12-22 00:14:30",1523833,3.644,68.16,4.897,0.707,8.84,103.5242,8.3,9.44,19.27,0,110,13.41,9.08,30.2
"2009-12-22 00:15:00",1523834,4.612,74.54,7.824,1.4,10.07,103.5242,8.3,9.33,19.23,0,110,13.41,9.08,36.5
"2009-12-22 00:15:30",1523835,4.893,73.2,8.37,1.338,12.08,103.524,8.3,9.52,19.49,0,110,13.41,9.08,35.2
"2009-12-22 00:16:00",1523836,5.146,79.71,6.273,1.219,11.49,103.5203,8.29,9.48,19.5,0,110,13.41,9.07,41.7
"2009-12-22 00:16:30",1523837,4.409,65.91,5.082,0.879,10.08,103.5146,8.27,9.43,19.41,0,110,13.41,9.05,27.9
"2009-12-22 00:17:00",1523838,4.166,60.04,5.135,1.237,9.8,103.5084,8.26,9.43,19.05,0,110,13.41,9.04,22.0
"2009-12-22 00:17:30",1523839,4.479,49.03,9.15,1.231,9.3,103.4994,8.23,9.27,18.92,0,110,13.41,9.01,11.0
"2009-12-22 00:18:00",1523840,2.987,42.18,8.85,0.617,8.46,103.4923,8.22,9.26,18.86,0,110,13.41,9.00,4.2
"2009-12-22 00:18:30",1523841,3.868,54.56,9.08,1.306,10.47,103.4906,8.21,9.46,19.15,0,110,13.42,8.99,16.6
"2009-12-22 00:19:00",1523842,5.024,57.86,10.28,1.55,11.83,103.4903,8.21,9.42,19.18,0,110,13.42,8.99,19.9
"2009-12-22 00:19:30",1523843,4.68,35.77,7.9,1.523,12.18,103.4903,8.21,9.52,19.13,0,110,13.41,8.99,357.8
"2009-12-22 00:20:00",1523844,4.449,38.7,9.73,1.653,10.94,103.4903,8.21,9.31,18.75,0,110,13.41,8.99,0.7
"2009-12-22 00:20:30",1523845,3.795,41.58,7.465,1.409,10.57,103.4903,8.21,9.35,18.72,0,110,13.41,8.99,3.6
"2009-12-22 00:21:00",1523846,3.674,45.4,4.261,1.097,9.47,103.4906,8.21,9.39,18.81,0,110,13.41,8.99,7.4
"2009-12-22 00:21:30",1523847,3.68,44.09,5.205,0.32,8.34,103.4903,8.21,9.24,18.81,0,110,13.44,8.99,6.1
"2009-12-22 00:22:00",1523848,3.489,45.24,4.434,1.038,9.81,103.4903,8.21,9.4,18.9,0,110,13.41,8.99,7.2
"2009-12-22 00:22:30",1523849,5.071,56.32,7.271,1.21,12.61,103.4901,8.21,9.42,18.8,0,110,13.41,8.99,18.3
"2009-12-22 00:23:00",1523850,4.529,60.51,7.738,1.235,12.2,103.4875,8.2,9.43,18.95,0,110,13.41,8.98,22.5
"2009-12-22 00:23:30",1523851,3.713,51.19,5.953,1.383,10.6,103.4847,8.2,9.33,18.78,0,110,13.41,8.98,13.2
"2009-12-22 00:24:00",1523852,3.991,48.69,7.923,1.258,11.5,103.4813,8.19,9.32,18.75,0,110,13.41,8.97,10.7
"2009-12-22 00:24:30",1523853,2.635,44.11,7.933,0.913,9.17,103.4765,8.18,9.33,18.69,0,110,13.41,8.96,6.1
"2009-12-22 00:25:00",1523854,2.314,48.86,2.774,0.197,8.04,103.4693,8.16,9.19,18.65,0,110,13.45,8.94,10.9
"2009-12-22 00:25:30",1523855,2.55,41.57,4.346,0.176,8.24,103.4631,8.14,9.2,18.71,0,110,13.45,8.92,3.6
"2009-12-22 00:26:00",1523856,2.306,52.88,8.66,0.199,9.32,103.4629,8.14,9.31,18.92,0,110,13.46,8.92,14.9
"2009-12-22 00:26:30",1523857,4.446,81.1,13.01,1.213,12.53,103.4646,8.15,9.41,19.05,0,110,13.42,8.93,43.1
"2009-12-22 00:27:00",1523858,4.601,104.4,8.41,1.314,12.01,103.4684,8.15,9.39,19.34,0,110,13.43,8.94,66.4
"2009-12-22 00:27:30",1523859,4.182,116.5,9.15,1.335,11.51,103.4705,8.16,9.28,19.6,0,110,13.43,8.94,78.5
"2009-12-22 00:28:00",1523860,4.25,99.6,9.76,1.192,11.65,103.4752,8.17,9.38,19.73,0,110,13.43,8.95,61.6
"2009-12-22 00:28:30",1523861,2.598,90.6,4.934,0.287,8.2,103.4757,8.17,9.15,19.57,0,110,13.43,8.95,52.6
"2009-12-22 00:29:00",1523862,2.127,87.9,8.79,0.275,7.939,103.479,8.18,9.16,19.57,0,110,13.46,8.96,49.9
"2009-12-22 00:29:30",1523863,2.394,103.4,8.26,0.282,8,103.4795,8.18,9.15,19.57,0,110,13.46,8.96,65.4
"2009-12-22 00:30:00",1523864,2.914,106.4,6.009,0.896,8.74,103.48,8.18,9.21,19.69,0,110,13.43,8.97,68.4
"2009-12-22 00:30:30",1523865,4.763,112.9,7.048,1.23,12.13,103.4645,8.14,9.39,19.9,0,110,13.42,8.93,74.9
"2009-12-22 00:31:00",1523866,5.013,117.3,7.195,1.076,12.26,103.4541,8.12,9.39,19.89,0,110,13.42,8.90,79.3
"2009-12-22 00:31:30",1523867,4.014,110.8,6.484,1.215,10.95,103.4538,8.12,9.34,19.87,0,110,13.42,8.90,72.8
"2009-12-22 00:32:00",1523868,3.805,85.5,10.58,1.257,10.41,103.4544,8.12,9.26,19.8,0,110,13.42,8.90,47.5
"2009-12-22 00:32:30",1523869,2.532,70.08,4.497,0.33,8.12,103.4556,8.12,9.16,19.63,0,110,13.46,8.90,32.1
"2009-12-22 00:33:00",1523870,2.103,64.46,3.932,0.112,7.904,103.457,8.13,9.1,19.53,0,110,13.46,8.91,26.5
"2009-12-22 00:33:30",1523871,2.267,75.62,2.659,0.119,8.22,103.4573,8.13,9.1,19.53,0,110,13.46,8.91,37.6
"2009-12-22 00:34:00",1523872,4.228,92.2,8.82,1.403,10.91,103.457,8.13,9.22,19.75,0,110,13.43,8.91,54.2
"2009-12-22 00:34:30",1523873,4.563,89.1,8.54,1.249,12.25,103.4534,8.12,9.36,19.91,0,110,13.43,8.90,51.1
"2009-12-22 00:35:00",1523874,4.468,107.3,13.64,1.337,12.41,103.4455,8.1,9.29,19.78,0,110,13.43,8.88,69.3
"2009-12-22 00:35:30",1523875,3.978,111,12.58,1.562,10.81,103.441,8.08,9.2,19.82,0,110,13.43,8.87,73.0
"2009-12-22 00:36:00",1523876,3.714,110.4,10.56,1.482,10.11,103.435,8.07,9.2,19.92,0,110,13.42,8.85,72.4
"2009-12-22 00:36:30",1523877,2.786,100.5,3.439,0.171,8.18,103.4251,8.04,9.1,19.87,0,110,13.46,8.82,62.5
"2009-12-22 00:37:00",1523878,2.846,104.6,6.485,0.293,8.03,103.4237,8.04,9.05,19.87,0,110,13.46,8.82,66.6
"2009-12-22 00:37:30",1523879,4.154,111.4,7.797,1.349,10.04,103.4237,8.04,9.1,19.91,0,110,13.42,8.82,73.4
"2009-12-22 00:38:00",1523880,3.196,120.7,10.07,1.066,9.84,103.4237,8.04,9.23,20.14,0,110,13.43,8.82,82.7
"2009-12-22 00:38:30",1523881,5.195,134.3,5.892,1.155,12.12,103.4237,8.04,9.25,20.27,0,110,13.42,8.82,96.3
"2009-12-22 00:39:00",1523882,5.287,133.8,6.196,1.285,12.25,103.4237,8.04,9.29,20.35,0,110,13.42,8.82,95.8
"2009-12-22 00:39:30",1523883,3.416,122.4,6.873,0.31,8.63,103.4234,8.04,9.11,20.28,0,110,13.42,8.82,84.4
"2009-12-22 00:40:00",1523884,4.412,132.3,8.74,1.032,9.86,103.4186,8.03,9.09,20.53,0,110,13.42,8.81,94.3
"2009-12-22 00:40:30",1523885,4.035,126.8,3.441,0.215,8.27,103.411,8.01,9.07,20.39,0,110,13.46,8.79,88.8
"2009-12-22 00:41:00",1523886,4.823,141.5,6.518,0.978,10.53,103.4059,7.995,9.14,20.49,0,110,13.43,8.77,103.5
"2009-12-22 00:41:30",1523887,4.058,132.1,4.851,1.007,10.03,103.3958,7.969,9.14,20.62,0,110,13.43,8.75,94.1
"2009-12-22 00:42:00",1523888,5.753,137.7,7.763,1.006,12.67,103.3901,7.955,9.21,20.48,0,110,13.43,8.73,99.7
"2009-12-22 00:42:30",1523889,4.849,138.4,10.45,1.324,11.91,103.3898,7.954,9.26,20.7,0,110,13.43,8.73,100.4
"2009-12-22 00:43:00",1523890,5.081,132.2,4.545,1.012,10.73,103.3898,7.954,9.07,20.45,0,110,13.43,8.73,94.2
"2009-12-22 00:43:30",1523891,4.726,137,6.216,1.156,10.15,103.3898,7.954,9.12,20.38,0,110,13.43,8.73,99.0
"2009-12-22 00:44:00",1523892,4.561,142,3.136,0.732,8.11,103.3898,7.954,8.98,20.2,0,110,13.46,8.73,104.0
"2009-12-22 00:44:30",1523893,6.164,148.1,5.101,1.101,9.37,103.3898,7.954,8.99,20.4,0,110,13.43,8.73,110.1
"2009-12-22 00:45:00",1523894,6.538,156.1,7.499,1.266,11.84,103.3898,7.954,9.26,20.84,0,110,13.44,8.73,118.1
"2009-12-22 00:45:30",1523895,6.891,151.5,14.2,1.384,12.4,103.3898,7.954,9.27,20.92,0,110,13.44,8.73,113.5
"2009-12-22 00:46:00",1523896,5.661,140.1,5.866,1.319,12.38,103.3898,7.954,9.23,20.76,0,110,13.43,8.73,102.1
"2009-12-22 00:46:30",1523897,5.104,144.8,7.693,1.312,10.13,103.3901,7.955,9.09,20.64,0,110,13.43,8.73,106.8
"2009-12-22 00:47:00",1523898,4.513,149.1,3.269,0.25,8.01,103.3898,7.954,8.94,20.62,0,110,13.46,8.73,111.1
"2009-12-22 00:47:30",1523899,4.28,147.2,2.008,0.214,8.2,103.3898,7.954,8.94,20.65,0,110,13.47,8.73,109.2
"2009-12-22 00:48:00",1523900,5.43,155.7,5.217,1.308,9.86,103.3893,7.952,8.94,20.67,0,110,13.44,8.73,117.7
"2009-12-22 00:48:30",1523901,6.067,159.7,6.682,1.169,12.4,103.3876,7.948,9.24,20.99,0,110,13.44,8.73,121.7
"2009-12-22 00:49:00",1523902,6.982,161.8,3.709,0.746,13.7,103.3836,7.938,9.24,20.98,0,110,13.44,8.72,123.8
"2009-12-22 00:49:30",1523903,5.785,156.1,6.018,1.247,11.23,103.3831,7.937,9.2,20.93,0,110,13.44,8.72,118.1
"2009-12-22 00:50:00",1523904,5.315,158.3,4.73,1.274,10.14,103.3794,7.927,9.01,20.73,0,110,13.43,8.71,120.3
"2009-12-22 00:50:30",1523905,4.551,153.2,1.938,0.298,8,103.3743,7.914,8.92,20.66,0,110,13.47,8.69,115.2
"2009-12-22 00:51:00",1523906,3.951,138.8,6.849,0.467,8.37,103.3718,7.908,8.93,20.54,0,110,13.47,8.69,100.8
"2009-12-22 00:51:30",1523907,3.916,133.1,7.221,0.977,9.54,103.369,7.901,8.98,20.4,0,110,13.44,8.68,95.1
"2009-12-22 00:52:00",1523908,5.667,159.6,9.08,1.11,12.97,103.3727,7.91,9.15,20.54,0,110,13.44,8.69,121.6
"2009-12-22 00:52:30",1523909,6.027,156.4,7.328,1.099,13.19,103.3718,7.908,9.25,20.79,0,110,13.43,8.69,118.4
"2009-12-22 00:53:00",1523910,5.115,156.5,6.284,1.216,10.47,103.373,7.911,9.15,20.73,0,110,13.43,8.69,118.5
"2009-12-22 00:53:30",1523911,5.393,155.6,8.99,1.214,9.98,103.3728,7.91,8.97,20.52,0,110,13.43,8.69,117.6
"2009-12-22 00:54:00",1523912,4.382,148.5,3.961,0.245,7.968,103.3722,7.909,8.92,20.48,0,110,13.47,8.69,110.5
"2009-12-22 00:54:30",1523913,3.888,148.5,4.681,0.347,8.42,103.371,7.906,8.92,20.42,0,109.9,13.47,8.69,110.5
"2009-12-22 00:55:00",1523914,5.452,160.6,6.717,1.306,11.56,103.3719,7.908,9.16,20.67,0,110,13.43,8.69,122.6
"2009-12-22 00:55:30",1523915,6.182,165.7,6.623,1.08,12.74,103.3703,7.904,9.16,20.7,0,110,13.43,8.68,127.7
"2009-12-22 00:56:00",1523916,5.677,166.4,7.014,1.319,12.71,103.37,7.903,9.15,20.7,0,110,13.43,8.68,128.4
"2009-12-22 00:56:30",1523917,6.248,166.8,7.062,1.019,12.04,103.3692,7.901,9.1,20.64,0,110,13.43,8.68,128.8
"2009-12-22 00:57:00",1523918,4.179,155.4,3.709,0.434,8.03,103.3667,7.895,8.91,20.46,0,110,13.43,8.67,117.4
"2009-12-22 00:57:30",1523919,4.339,158.9,2.842,0.159,8.04,103.3652,7.891,8.91,20.33,0,110,13.47,8.67,120.9
"2009-12-22 00:58:00",1523920,4.75,158.6,6.491,0.94,9.13,103.3667,7.895,8.91,20.34,0,110,13.44,8.67,120.6
"2009-12-22 00:58:30",1523921,5.7,165.4,11.99,1.25,12.34,103.3658,7.893,9.14,20.6,0,110,13.44,8.67,127.4
"2009-12-22 00:59:00",1523922,5.407,166.7,6.741,1.151,12.59,103.3661,7.893,9.13,20.56,0,110,13.44,8.67,128.7
"2009-12-22 00:59:30",1523923,6.119,160.9,8.52,1.291,12.55,103.3684,7.899,9.18,20.56,0,110,13.44,8.68,122.9
"2009-12-22 01:00:00",1523924,6.169,169.4,8.48,1.341,11.7,103.3696,7.902,9.09,20.48,0,110,13.44,8.68,131.4
"2009-12-22 01:00:30",1523925,4.591,159.9,2.781,0.395,8.06,103.3701,7.904,8.93,20.24,0,110,13.47,8.68,121.9
"2009-12-22 01:01:00",1523926,4.282,165.1,5.217,0.402,8.19,103.3773,7.922,8.91,20.21,0,110,13.47,8.70,127.1
"2009-12-22 01:01:30",1523927,5.018,163.1,11.63,1.397,10.4,103.3847,7.941,9.07,20.38,0,110,13.44,8.72,125.1
"2009-12-22 01:02:00",1523928,6.099,172.7,9,1.336,11.62,103.3881,7.949,9.1,20.35,0,110,13.44,8.73,134.7
"2009-12-22 01:02:30",1523929,6.133,164,9.35,1.195,12.28,103.392,7.959,9.12,20.35,0,110,13.44,8.74,126.0
"2009-12-22 01:03:00",1523930,6.664,171.2,5.511,1.043,12.67,103.4011,7.983,9.15,20.35,0,110,13.44,8.76,133.2
"2009-12-22 01:03:30",1523931,6,163.2,8.08,1.23,10.9,103.4045,7.991,9.14,20.38,0,110,13.44,8.77,125.2
"2009-12-22 01:04:00",1523932,5.058,160.1,1.91,0.163,8.16,103.4074,7.999,8.92,20.18,0,110,13.48,8.78,122.1
"2009-12-22 01:04:30",1523933,5.608,157.6,6.634,1.383,10,103.4088,8,9.08,20.33,0,110,13.44,8.78,119.6
"2009-12-22 01:05:00",1523934,6.191,161.1,5.472,1.041,9.7,103.4088,8,9.06,20.28,0,110,13.44,8.78,123.1
"2009-12-22 01:05:30",1523935,6.815,171.8,6.039,1.202,12.31,103.4111,8.01,9.1,20.39,0,110,13.44,8.79,133.8
"2009-12-22 01:06:00",1523936,6.56,169.8,6.624,1.299,12.07,103.4117,8.01,9.21,20.43,0,110,13.44,8.79,131.8
"2009-12-22 01:06:30",1523937,7.145,168.7,6.668,1.124,12.41,103.4091,8,9.22,20.37,0,110,13.44,8.78,130.7
"2009-12-22 01:07:00",1523938,6.034,164.4,6.893,0.978,10.11,103.4114,8.01,9.18,20.23,0,110,13.44,8.79,126.4
"2009-12-22 01:07:30",1523939,5.693,158,5.565,0.844,9.18,103.4135,8.01,9.11,20.11,0,110,13.44,8.79,120.0
"2009-12-22 01:08:00",1523940,5.909,158.3,5.087,1.197,9.5,103.4126,8.01,9.03,20.03,0,110,13.44,8.79,120.3
"2009-12-22 01:08:30",1523941,7.443,165.1,6.12,1.167,12.03,103.4138,8.02,9.09,20.04,0,110,13.44,8.80,127.1
"2009-12-22 01:09:00",1523942,6.701,162.9,6.198,1.133,11.17,103.4144,8.02,9.07,20.04,0,110,13.44,8.80,124.9
"2009-12-22 01:09:30",1523943,7.055,165.5,6.642,1.152,12.65,103.4161,8.02,9.26,20.22,0,110,13.44,8.80,127.5
"2009-12-22 01:10:00",1523944,6.656,165.6,5.609,1.196,12.65,103.4206,8.03,9.23,20.21,0,110,13.43,8.81,127.6
"2009-12-22 01:10:30",1523945,5.628,159.8,6.422,1.147,9.3,103.4258,8.05,8.99,20,0,110,13.43,8.83,121.8
"2009-12-22 01:11:00",1523946,6.278,161.6,6.532,1.318,10.35,103.4346,8.07,9.11,20.08,0,110,13.43,8.85,123.6
"2009-12-22 01:11:30",1523947,6.113,158.9,6.185,1.242,10.41,103.4351,8.07,9.15,20.07,0,110,13.43,8.85,120.9
"2009-12-22 01:12:00",1523948,5.936,156.6,4.496,0.988,9.39,103.4399,8.08,9,19.92,0,110,13.44,8.86,118.6
"2009-12-22 01:12:30",1523949,6.829,165.3,6.522,1.272,12.58,103.4396,8.08,9.25,20.16,0,110,13.44,8.86,127.3
"2009-12-22 01:13:00",1523950,7.649,167.4,4.981,0.729,13.77,103.4427,8.09,9.35,20.26,0,110,13.44,8.87,129.4
"2009-12-22 01:13:30",1523951,5.703,154.9,4.301,1.107,9.84,103.451,8.11,9.04,19.95,0,110,13.44,8.89,116.9
"2009-12-22 01:14:00",1523952,5.579,159.9,7.35,1.355,10.26,103.4532,8.12,9.19,20.08,0,110,13.44,8.90,121.9
"2009-12-22 01:14:30",1523953,5.531,159,5.796,1.11,9.77,103.4544,8.12,9.16,20.03,0,110,13.44,8.90,121.0
"2009-12-22 01:15:00",1523954,5.597,157.7,5.379,1.111,9.29,103.4532,8.12,9.03,19.86,0,110,13.44,8.90,119.7
"2009-12-22 01:15:30",1523955,6.381,163.8,5.893,1.312,11.51,103.455,8.12,9.18,20.03,0,110,13.44,8.90,125.8
"2009-12-22 01:16:00",1523956,6.832,165.6,6.197,1.158,12.64,103.4556,8.12,9.31,20.17,0,110,13.44,8.90,127.6
"2009-12-22 01:16:30",1523957,6.43,165.2,5.632,1.34,12.07,103.4553,8.12,9.29,20.11,0,110,13.44,8.90,127.2
"2009-12-22 01:17:00",1523958,6.632,165.5,6.782,1.269,12,103.4538,8.12,9.3,20.07,0,110,13.44,8.90,127.5
"2009-12-22 01:17:30",1523959,5.631,160.5,6.861,0.976,9.83,103.4544,8.12,9.2,19.97,0,110,13.44,8.90,122.5
"2009-12-22 01:18:00",1523960,5.95,161.3,5.992,1.111,9.36,103.4549,8.12,9.06,19.75,0,110,13.44,8.90,123.3
"2009-12-22 01:18:30",1523961,5.485,162.2,4.046,0.458,9.24,103.4643,8.14,9.12,19.79,0,110,13.48,8.92,124.2
"2009-12-22 01:19:00",1523962,7.027,171.2,5.578,1.215,12.87,103.4691,8.16,9.3,19.92,0,110,13.44,8.94,133.2
"2009-12-22 01:19:30",1523963,6.555,163.4,6.132,1.236,12.33,103.472,8.16,9.29,19.9,0,110,13.45,8.94,125.4
"2009-12-22 01:20:00",1523964,5.715,164.2,8.36,1.036,10.67,103.4736,8.17,9.37,20.01,0,110,13.44,8.95,126.2
"2009-12-22 01:20:30",1523965,6.453,175,6.351,1.311,12.14,103.483,8.19,9.35,19.95,0,110,13.44,8.97,137.0
"2009-12-22 01:21:00",1523966,5.455,166.6,8.77,1.225,9.64,103.4849,8.2,9.12,19.67,0,110,13.44,8.98,128.6
"2009-12-22 01:21:30",1523967,5.287,163.9,1.706,0.245,8.47,103.4886,8.21,9.1,19.67,0,110,13.48,8.99,125.9
"2009-12-22 01:22:00",1523968,5.344,163,2.7,0.238,9.16,103.4886,8.21,9.21,19.68,0,110,13.48,8.99,125.0
"2009-12-22 01:22:30",1523969,7.042,173.1,6.124,1.182,12.66,103.491,8.21,9.32,19.76,0,110,13.45,8.99,135.1
"2009-12-22 01:23:00",1523970,6.258,169.8,6.363,1.235,11.27,103.4883,8.21,9.28,19.65,0,110,13.45,8.99,131.8
"2009-12-22 01:23:30",1523971,6.656,172.9,5.999,1.307,12.72,103.4901,8.21,9.36,19.72,0,110,13.44,8.99,134.9
"2009-12-22 01:24:00",1523972,5.488,171,7.393,1.419,11.43,103.491,8.21,9.39,19.74,0,110,13.44,8.99,133.0
"2009-12-22 01:24:30",1523973,4.433,158.2,6.853,0.847,8.9,103.4943,8.22,9.17,19.5,0,110,13.44,9.00,120.2
"2009-12-22 01:25:00",1523974,4.695,160.9,3.825,0.18,8.38,103.5101,8.26,9.17,19.45,0,110,13.48,9.04,122.9
"2009-12-22 01:25:30",1523975,5.625,163.7,5.382,1.234,10.7,103.5209,8.29,9.31,19.42,0,110,13.44,9.07,125.7
"2009-12-22 01:26:00",1523976,5.85,163.9,8.85,1.282,11.61,103.5249,8.3,9.35,19.46,0,110,13.44,9.08,125.9
"2009-12-22 01:26:30",1523977,5.711,166.2,7.238,1.253,12.64,103.5252,8.3,9.38,19.46,0,110,13.44,9.08,128.2
"2009-12-22 01:27:00",1523978,5.722,165.8,6.093,1.122,12.89,103.5249,8.3,9.53,19.48,0,110,13.44,9.08,127.8
"2009-12-22 01:27:30",1523979,5.037,157.9,7.58,1.231,11.14,103.5243,8.3,9.36,19.31,0,110,13.44,9.08,119.9
"2009-12-22 01:28:00",1523980,3.524,151.3,2.498,0.243,8.17,103.5237,8.3,9.21,19.16,0,110,13.47,9.08,113.3
"2009-12-22 01:28:30",1523981,3.586,153.5,3.57,0.188,8.25,103.5231,8.29,9.19,19.09,0,110,13.47,9.08,115.5
"2009-12-22 01:29:00",1523982,4.731,155.7,5.963,1.217,10.77,103.5249,8.3,9.36,19.2,0,110,13.44,9.08,117.7
"2009-12-22 01:29:30",1523983,4.763,157.2,7.038,1.211,11.49,103.5283,8.31,9.43,19.24,0,110,13.44,9.09,119.2
"2009-12-22 01:30:00",1523984,4.183,162.1,8.23,1.098,10.69,103.5294,8.31,9.42,19.22,0,110,13.45,9.09,124.1
"2009-12-22 01:30:30",1523985,6.042,173.1,5.466,0.893,13.62,103.5333,8.32,9.53,19.28,0,110,13.45,9.10,135.1
"2009-12-22 01:31:00",1523986,6.446,163.2,6.176,1.128,12.56,103.5376,8.33,9.49,19.23,0,110,13.45,9.11,125.2
"2009-12-22 01:31:30",1523987,5.071,152.3,5.454,0.961,9.6,103.543,8.35,9.3,19.07,0,110,13.45,9.13,114.3
"2009-12-22 01:32:00",1523988,5.031,151.4,5.468,0.818,9.11,103.5461,8.35,9.26,19.01,0,110,13.45,9.13,113.4
"2009-12-22 01:32:30",1523989,4.911,155.4,4.966,0.936,9.68,103.5474,8.36,9.4,19.13,0,110,13.45,9.14,117.4
"2009-12-22 01:33:00",1523990,5.529,159,7.053,1.343,10.41,103.5506,8.36,9.27,19,0,110,13.45,9.15,121.0
"2009-12-22 01:33:30",1523991,4.546,159.1,4.707,0.851,10.21,103.5525,8.37,9.38,19.08,0,110,13.45,9.15,121.1
"2009-12-22 01:34:00",1523992,6.414,166.1,4.831,1.076,13.37,103.5551,8.38,9.54,19.17,0,110,13.45,9.16,128.1
"2009-12-22 01:34:30",1523993,6.326,159.2,7.337,1.204,12.56,103.5588,8.39,9.55,19.13,0,110,13.45,9.17,121.2
"2009-12-22 01:35:00",1523994,5.155,159.2,4.881,1.33,10.54,103.5571,8.38,9.35,18.96,0,110,13.45,9.16,121.2
"2009-12-22 01:35:30",1523995,4.282,148.5,1.36,0.161,8.47,103.5579,8.38,9.29,18.86,0,110,13.48,9.16,110.5
"2009-12-22 01:36:00",1523996,5.25,149.6,6.637,1.256,10.7,103.5599,8.39,9.43,19.11,0,110,13.45,9.17,111.6
"2009-12-22 01:36:30",1523997,4.367,142.2,3.248,0.461,9.51,103.5573,8.38,9.41,19.1,0,110,13.45,9.16,104.2
"2009-12-22 01:37:00",1523998,5.129,145.4,5.495,1.187,11.19,103.5594,8.39,9.5,19.16,0,110,13.45,9.17,107.4
"2009-12-22 01:37:30",1523999,6.106,150,7.216,1.06,13.31,103.5605,8.39,9.55,19.18,0,110,13.45,9.17,112.0
"2009-12-22 01:38:00",1524000,5.817,150.9,7.816,1.343,12.33,103.5582,8.38,9.52,19.16,0,110,13.45,9.17,112.9
"2009-12-22 01:38:30",1524001,4.335,138.4,1.211,0.242,8.82,103.5585,8.39,9.41,19,0,110,13.48,9.17,100.4
"2009-12-22 01:39:00",1524002,4.178,142.7,3.99,0.183,8.59,103.5588,8.39,9.37,18.92,0,110,13.48,9.17,104.7
"2009-12-22 01:39:30",1524003,4.77,151.3,6.435,1.295,10.62,103.5599,8.39,9.42,18.96,0,110,13.45,9.17,113.3
"2009-12-22 01:40:00",1524004,3.879,147.7,1.81,0.061,9.08,103.5588,8.39,9.38,18.95,0,110,13.48,9.17,109.7
"2009-12-22 01:40:30",1524005,4.54,153.9,6.564,1.197,11.23,103.5591,8.39,9.58,19.12,0,110,13.45,9.17,115.9
"2009-12-22 01:41:00",1524006,5.611,153.8,5.945,1.075,12.76,103.5597,8.39,9.57,19.09,0,110,13.45,9.17,115.8
"2009-12-22 01:41:30",1524007,4.662,146.5,8.41,1.145,10.75,103.5591,8.39,9.46,19.04,0,110,13.45,9.17,108.5
"2009-12-22 01:42:00",1524008,4.996,144.9,5.702,1.324,10.83,103.5588,8.39,9.43,19,0,110,13.44,9.17,106.9
"2009-12-22 01:42:30",1524009,4.298,145.3,6.479,1.087,9.97,103.5588,8.39,9.44,18.99,0,110,13.44,9.17,107.3
"2009-12-22 01:43:00",1524010,4.091,149.1,5.498,1.092,9.65,103.5599,8.39,9.41,18.94,0,110,13.44,9.17,111.1
"2009-12-22 01:43:30",1524011,4.377,143.6,5.251,1.1,10.18,103.5597,8.39,9.37,18.9,0,110,13.44,9.17,105.6
"2009-12-22 01:44:00",1524012,5.177,145.1,6.224,1.288,11.8,103.5602,8.39,9.48,19.04,0,110,13.44,9.17,107.1
"2009-12-22 01:44:30",1524013,5.331,147,7.521,1.259,12.61,103.5594,8.39,9.54,19.08,0,110,13.44,9.17,109.0
"2009-12-22 01:45:00",1524014,4.884,151.5,5.827,1.277,12,103.5585,8.39,9.5,19.02,0,110,13.44,9.17,113.5
"2009-12-22 01:45:30",1524015,3.318,144.7,3.009,0.101,8.81,103.5599,8.39,9.38,18.9,0,110,13.44,9.17,106.7
"2009-12-22 01:46:00",1524016,4.207,149.2,5.344,1.212,10.36,103.5579,8.38,9.45,18.97,0,110,13.44,9.16,111.2
"2009-12-22 01:46:30",1524017,3.973,147.4,5.925,0.924,9.59,103.5585,8.39,9.44,18.95,0,110,13.45,9.17,109.4
"2009-12-22 01:47:00",1524018,3.98,149.9,6.409,1.091,9.95,103.5591,8.39,9.33,18.84,0,110,13.45,9.17,111.9
"2009-12-22 01:47:30",1524019,3.582,143.7,4.656,0.839,9.51,103.5565,8.38,9.39,18.91,0,110,13.45,9.16,105.7
"2009-12-22 01:48:00",1524020,5.031,151.3,6.701,1.071,12.84,103.5551,8.38,9.57,19.1,0,109.9,13.45,9.16,113.3
"2009-12-22 01:48:30",1524021,4.372,150.2,7.347,1.295,11.65,103.55,8.36,9.48,19.05,0,110,13.45,9.14,112.2
"2009-12-22 01:49:00",1524022,4.225,149.5,6.371,1.307,10.93,103.5483,8.36,9.43,18.99,0,110,13.45,9.14,111.5
"2009-12-22 01:49:30",1524023,3.77,150.5,7.434,1.236,10.08,103.5441,8.35,9.34,18.87,0,110,13.45,9.13,112.5
"2009-12-22 01:50:00",1524024,3.502,149.5,3.792,0.952,9.54,103.5396,8.34,9.44,18.96,0,110,13.45,9.12,111.5
"2009-12-22 01:50:30",1524025,3.607,150,6.203,1.166,9.62,103.5359,8.33,9.31,18.82,0,110,13.45,9.11,112.0
"2009-12-22 01:51:00",1524026,2.845,151.5,1.832,0.067,8.85,103.5294,8.31,9.29,18.81,0,110,13.49,9.09,113.5
"2009-12-22 01:51:30",1524027,3.921,154.1,5.648,1.328,11.2,103.5266,8.3,9.5,19.04,0,110,13.45,9.08,116.1
"2009-12-22 01:52:00",1524028,4.239,155.5,6.897,1.369,11.87,103.526,8.3,9.53,19.08,0,110,13.45,9.08,117.5
"2009-12-22 01:52:30",1524029,4.435,153.4,7.322,1.242,11.39,103.5257,8.3,9.43,18.97,0,110,13.45,9.08,115.4